Location: Newark
(18.0634°N, 63.0549°W)
Time: 15:33:48
(UTC+00:00)

OTV 5 (USA 277) - Pass Details

Date: 23 October 2019
Orbit: 310 x 324 km, 54.5° (Epoch: 17 October)

Event Time Altitude Azimuth Distance (km) Brightness Sun altitude
Exits shadow 08:51:35 11° 11° (N) 1,162 ? -18.8°
Maximum altitude 08:53:15 17° 51° (NE) 908 ? -18.4°
Drops below altitude 10° 08:55:08 10° 96° (E) 1,216 ? -17.9°
Sets 08:57:30 0° 118° (ESE) 2,041 ? -17.4°
